JST988 YSSY-YPPH

Flight info

Callsign JST988
Flight time 4h 40m
Altitude 34000
Route KADOM H44 BORLI Q32 KAMBI/N0446F360 Q32 NODEV Q10 MALUP Q158 PH
Aircraft A320/M-SDE3FGHIRWY/LB1

Departure

Time 2026-04-22 07:42
Airport Sydney Kingsford Smith International Airport (YSSY)

Arrival

Time 2026-04-22 12:23
Airport Perth International Airport (YPPH)
Time Latitude Longitude Altitude Speed Heading
2026-04-22 07:17 -33.93485 151.17773 30 ft 0 kts 281°
2026-04-22 07:35 -33.93488 151.17791 30 ft 4 kts 279°
2026-04-22 07:35 -33.93491 151.17823 30 ft 4 kts 262°
2026-04-22 07:35 -33.93482 151.17846 30 ft 3 kts 193°
2026-04-22 07:35 -33.93480 151.17847 30 ft 0 kts 190°
2026-04-22 07:38 -33.93483 151.17846 30 ft 1 kts 190°
2026-04-22 07:38 -33.93506 151.17842 30 ft 6 kts 189°
2026-04-22 07:39 -33.93561 151.17830 30 ft 10 kts 190°
2026-04-22 07:39 -33.93633 151.17814 30 ft 11 kts 190°
2026-04-22 07:39 -33.93715 151.17791 30 ft 13 kts 193°
2026-04-22 07:39 -33.93798 151.17766 30 ft 9 kts 194°
2026-04-22 07:40 -33.93852 151.17721 29 ft 11 kts 244°
2026-04-22 07:40 -33.93875 151.17627 29 ft 13 kts 253°
2026-04-22 07:40 -33.93894 151.17546 28 ft 3 kts 254°
2026-04-22 07:40 -33.93895 151.17543 28 ft 1 kts 254°
2026-04-22 07:41 -33.93906 151.17498 27 ft 10 kts 255°
2026-04-22 07:41 -33.93928 151.17425 27 ft 8 kts 224°
2026-04-22 07:41 -33.93986 151.17430 26 ft 10 kts 167°
2026-04-22 07:41 -33.94167 151.17479 29 ft 60 kts 167°
2026-04-22 07:42 -33.94820 151.17648 29 ft 128 kts 167°
2026-04-22 07:42 -33.95866 151.17916 166 ft 168 kts 168°
2026-04-22 07:42 -33.97007 151.18174 990 ft 166 kts 172°
2026-04-22 07:42 -33.98160 151.18199 1809 ft 165 kts 186°
2026-04-22 07:43 -33.99329 151.18009 2172 ft 177 kts 185°
2026-04-22 07:43 -34.00612 151.17793 2409 ft 195 kts 185°
2026-04-22 07:43 -34.02039 151.17553 2561 ft 220 kts 186°
2026-04-22 07:43 -34.03641 151.17396 2890 ft 240 kts 173°
2026-04-22 07:44 -34.05304 151.17830 3519 ft 247 kts 162°
2026-04-22 07:44 -34.06928 151.18488 4293 ft 251 kts 161°
2026-04-22 07:44 -34.08586 151.19185 5091 ft 253 kts 161°
2026-04-22 07:44 -34.10270 151.19865 5846 ft 257 kts 163°
2026-04-22 07:45 -34.11986 151.20520 6583 ft 261 kts 163°
2026-04-22 07:45 -34.13735 151.21150 7289 ft 264 kts 164°
2026-04-22 07:45 -34.15513 151.21763 8001 ft 267 kts 163°
2026-04-22 07:45 -34.17314 151.22343 8704 ft 270 kts 169°
2026-04-22 07:46 -34.19205 151.22365 9376 ft 276 kts 188°
2026-04-22 07:46 -34.21028 151.21559 10033 ft 285 kts 208°
2026-04-22 07:46 -34.22566 151.19974 10482 ft 302 kts 225°
2026-04-22 07:46 -34.23806 151.17834 10791 ft 319 kts 240°
2026-04-22 07:47 -34.24608 151.15295 11331 ft 328 kts 254°
2026-04-22 07:47 -34.24884 151.12533 11909 ft 335 kts 269°
2026-04-22 07:47 -34.24578 151.09721 12498 ft 341 kts 284°
2026-04-22 07:47 -34.23675 151.07050 13080 ft 347 kts 300°
2026-04-22 07:48 -34.22207 151.04730 13656 ft 351 kts 316°
2026-04-22 07:48 -34.20255 151.02950 14206 ft 353 kts 333°
2026-04-22 07:48 -34.17977 151.01846 14706 ft 355 kts 349°
2026-04-22 07:48 -34.15530 151.01507 15181 ft 354 kts
2026-04-22 07:49 -34.13062 151.01712 15674 ft 358 kts
2026-04-22 07:49 -34.10558 151.01510 16160 ft 365 kts 352°
2026-04-22 07:49 -34.08069 151.00767 16649 ft 370 kts 346°
2026-04-22 07:49 -34.05574 150.99939 17126 ft 375 kts 346°
2026-04-22 07:50 -34.03056 150.99056 17614 ft 379 kts 341°
2026-04-22 07:50 -34.00673 150.97653 18076 ft 385 kts 327°
2026-04-22 07:50 -33.98602 150.95657 18480 ft 390 kts 313°
2026-04-22 07:50 -33.96885 150.93067 18611 ft 401 kts 299°
2026-04-22 07:51 -33.95603 150.90046 18803 ft 410 kts 292°
2026-04-22 07:51 -33.94373 150.86924 19204 ft 414 kts 292°
2026-04-22 07:51 -33.93110 150.83790 19675 ft 417 kts 293°
2026-04-22 07:51 -33.91828 150.80653 20166 ft 419 kts 293°
2026-04-22 07:52 -33.90533 150.77503 20682 ft 421 kts 293°
2026-04-22 07:52 -33.89233 150.74338 21163 ft 423 kts 292°
2026-04-22 07:52 -33.87930 150.71157 21661 ft 424 kts 292°
2026-04-22 07:52 -33.86624 150.67964 22132 ft 426 kts 292°
2026-04-22 07:53 -33.85317 150.64758 22584 ft 428 kts 292°
2026-04-22 07:53 -33.84007 150.61537 23049 ft 429 kts 292°
2026-04-22 07:53 -33.82690 150.58296 23497 ft 431 kts 292°
2026-04-22 07:53 -33.81368 150.55049 23931 ft 433 kts 292°
2026-04-22 07:54 -33.80039 150.51794 24304 ft 434 kts 292°
2026-04-22 07:54 -33.78703 150.48536 24681 ft 435 kts 292°
2026-04-22 07:54 -33.77365 150.45273 25062 ft 436 kts 292°
2026-04-22 07:54 -33.76024 150.42004 25420 ft 437 kts 292°
2026-04-22 07:55 -33.74699 150.38773 25771 ft 438 kts 292°
2026-04-22 07:55 -33.73357 150.35487 26123 ft 438 kts 290°
2026-04-22 07:55 -33.72289 150.32080 26476 ft 434 kts 281°
2026-04-22 07:55 -33.71693 150.28551 26811 ft 429 kts 272°
2026-04-22 07:56 -33.71567 150.24989 27135 ft 426 kts 263°
2026-04-22 07:56 -33.71834 150.21458 27459 ft 425 kts 259°
2026-04-22 07:56 -33.72148 150.17923 27789 ft 426 kts 260°
2026-04-22 07:56 -33.72458 150.14378 28092 ft 428 kts 260°
2026-04-22 07:57 -33.72766 150.10818 28405 ft 429 kts 260°
2026-04-22 07:57 -33.73074 150.07244 28742 ft 430 kts 260°
2026-04-22 07:57 -33.73279 150.04837 29039 ft 429 kts 260°
2026-04-22 07:57 -33.73581 150.01277 29483 ft 427 kts 260°
2026-04-22 07:58 -33.73879 149.97779 29930 ft 425 kts 260°
2026-04-22 07:58 -33.74179 149.94253 30379 ft 424 kts 260°
2026-04-22 07:58 -33.74434 149.91244 30770 ft 422 kts 261°
2026-04-22 07:58 -33.74731 149.87743 31166 ft 420 kts 261°
2026-04-22 07:59 -33.75028 149.84261 31560 ft 418 kts 261°
2026-04-22 07:59 -33.75323 149.80793 31961 ft 416 kts 261°
2026-04-22 07:59 -33.75612 149.77344 32350 ft 414 kts 261°
2026-04-22 07:59 -33.75897 149.73918 32738 ft 412 kts 261°
2026-04-22 08:00 -33.76179 149.70502 33129 ft 410 kts 261°
2026-04-22 08:00 -33.76459 149.67104 33515 ft 408 kts 261°
2026-04-22 08:00 -33.76740 149.63718 33899 ft 406 kts 261°
2026-04-22 08:00 -33.77021 149.60354 34248 ft 405 kts 261°
2026-04-22 08:01 -33.77585 149.53580 34343 ft 412 kts 261°
2026-04-22 08:01 -33.78148 149.46700 34335 ft 415 kts 261°
2026-04-22 08:02 -33.78704 149.39838 34336 ft 415 kts 261°
2026-04-22 08:02 -33.79259 149.32938 34330 ft 415 kts 262°
2026-04-22 08:03 -33.79802 149.26024 34327 ft 415 kts 262°
2026-04-22 08:03 -33.80349 149.19106 34323 ft 416 kts 262°
2026-04-22 08:04 -33.80905 149.12185 34316 ft 416 kts 262°
2026-04-22 08:04 -33.81448 149.05265 34315 ft 416 kts 262°
2026-04-22 08:05 -33.81982 148.98340 34320 ft 416 kts 262°
2026-04-22 08:05 -33.82511 148.91414 34310 ft 416 kts 262°
2026-04-22 08:06 -33.83035 148.84480 34311 ft 416 kts 262°
2026-04-22 08:06 -33.83566 148.77550 34307 ft 416 kts 262°
2026-04-22 08:07 -33.84089 148.70615 34308 ft 416 kts 263°
2026-04-22 08:07 -33.84746 148.63719 34303 ft 414 kts 257°
2026-04-22 08:08 -33.85888 148.56970 34300 ft 414 kts 257°
2026-04-22 08:08 -33.87023 148.50168 34298 ft 415 kts 257°
2026-04-22 08:09 -33.88152 148.43356 34297 ft 415 kts 257°
2026-04-22 08:09 -33.89284 148.36529 34298 ft 416 kts 257°
2026-04-22 08:10 -33.90406 148.29697 34299 ft 416 kts 257°
2026-04-22 08:10 -33.91521 148.22860 34302 ft 417 kts 258°
2026-04-22 08:11 -33.92642 148.16013 34302 ft 417 kts 257°
2026-04-22 08:11 -33.93765 148.09151 34301 ft 417 kts 258°
2026-04-22 08:12 -33.94882 148.02289 34304 ft 418 kts 258°
2026-04-22 08:12 -33.95993 147.95421 34304 ft 418 kts 258°
2026-04-22 08:13 -33.97103 147.88544 34306 ft 418 kts 258°
2026-04-22 08:13 -33.98206 147.81662 34305 ft 419 kts 258°
2026-04-22 08:14 -33.99306 147.74770 34305 ft 419 kts 258°
2026-04-22 08:14 -34.00399 147.67919 34307 ft 419 kts 258°
2026-04-22 08:15 -34.01506 147.60978 34310 ft 419 kts 258°
2026-04-22 08:15 -34.02588 147.54110 34313 ft 420 kts 258°
2026-04-22 08:16 -34.03675 147.47202 34310 ft 420 kts 258°
2026-04-22 08:16 -34.04763 147.40286 34307 ft 420 kts 258°
2026-04-22 08:17 -34.05848 147.33363 34306 ft 420 kts 258°
2026-04-22 08:17 -34.06932 147.26421 34306 ft 421 kts 258°
2026-04-22 08:18 -34.08009 147.19476 34305 ft 422 kts 258°
2026-04-22 08:18 -34.09085 147.12524 34313 ft 422 kts 258°
2026-04-22 08:19 -34.10157 147.05564 34310 ft 422 kts 258°
2026-04-22 08:19 -34.11222 146.98608 34312 ft 422 kts 258°
2026-04-22 08:20 -34.12282 146.91634 34313 ft 422 kts 258°
2026-04-22 08:20 -34.13336 146.84700 34310 ft 423 kts 258°
2026-04-22 08:21 -34.14396 146.77720 34311 ft 422 kts 259°
2026-04-22 08:21 -34.15450 146.70749 34311 ft 422 kts 259°
2026-04-22 08:22 -34.16496 146.63777 34310 ft 422 kts 259°
2026-04-22 08:22 -34.17540 146.56806 34314 ft 422 kts 259°
2026-04-22 08:23 -34.18581 146.49840 34316 ft 421 kts 259°
2026-04-22 08:23 -34.19618 146.42879 34317 ft 421 kts 259°
2026-04-22 08:24 -34.20649 146.35925 34315 ft 420 kts 259°
2026-04-22 08:24 -34.21673 146.28975 34316 ft 420 kts 259°
2026-04-22 08:25 -34.22688 146.22034 34319 ft 419 kts 259°
2026-04-22 08:25 -34.23704 146.15095 34314 ft 419 kts 259°
2026-04-22 08:26 -34.24716 146.08161 34311 ft 419 kts 260°
2026-04-22 08:26 -34.25130 146.01149 34309 ft 419 kts 267°
2026-04-22 08:27 -34.25350 145.94156 34302 ft 419 kts 267°
2026-04-22 08:27 -34.25573 145.87110 34294 ft 420 kts 267°
2026-04-22 08:28 -34.25794 145.80054 34289 ft 420 kts 268°
2026-04-22 08:28 -34.26006 145.72981 34283 ft 421 kts 268°
2026-04-22 08:29 -34.26216 145.65893 34286 ft 422 kts 268°
2026-04-22 08:29 -34.26424 145.58790 34285 ft 423 kts 268°
2026-04-22 08:30 -34.26637 145.51665 34284 ft 424 kts 268°
2026-04-22 08:30 -34.26836 145.44529 34280 ft 425 kts 268°
2026-04-22 08:31 -34.27032 145.37382 34285 ft 426 kts 268°
2026-04-22 08:32 -34.27315 145.26629 34291 ft 427 kts 268°
2026-04-22 08:32 -34.27504 145.19501 34297 ft 427 kts 268°
2026-04-22 08:33 -34.27686 145.12317 34299 ft 428 kts 268°
2026-04-22 08:33 -34.27864 145.05133 34303 ft 428 kts 268°
2026-04-22 08:34 -34.28043 144.97945 34307 ft 427 kts 268°
2026-04-22 08:34 -34.28212 144.90762 34307 ft 427 kts 268°
2026-04-22 08:35 -34.28388 144.83585 34311 ft 427 kts 268°
2026-04-22 08:35 -34.28553 144.76400 34307 ft 427 kts 268°
2026-04-22 08:36 -34.28710 144.69229 34311 ft 426 kts 268°
2026-04-22 08:36 -34.28853 144.62072 34315 ft 425 kts 268°
2026-04-22 08:37 -34.29002 144.54972 34319 ft 424 kts 268°
2026-04-22 08:37 -34.29153 144.47842 34319 ft 424 kts 268°
2026-04-22 08:38 -34.29293 144.40726 34312 ft 423 kts 268°
2026-04-22 08:38 -34.29431 144.33625 34314 ft 422 kts 268°
2026-04-22 08:39 -34.29568 144.26535 34316 ft 421 kts 268°
2026-04-22 08:39 -34.29693 144.19457 34315 ft 421 kts 268°
2026-04-22 08:40 -34.29812 144.12376 34311 ft 421 kts 268°
2026-04-22 08:40 -34.29924 144.05302 34305 ft 421 kts 268°
2026-04-22 08:41 -34.30038 143.98222 34304 ft 421 kts 268°
2026-04-22 08:41 -34.30153 143.91147 34302 ft 421 kts 268°
2026-04-22 08:42 -34.30263 143.84057 34302 ft 422 kts 268°
2026-04-22 08:42 -34.30365 143.77007 34301 ft 422 kts 268°
2026-04-22 08:43 -34.30461 143.69898 34298 ft 423 kts 268°
2026-04-22 08:43 -34.30554 143.62787 34301 ft 423 kts 268°
2026-04-22 08:44 -34.30646 143.55661 34306 ft 424 kts 268°
2026-04-22 08:44 -34.30739 143.48538 34301 ft 424 kts 268°
2026-04-22 08:45 -34.30822 143.41413 34307 ft 424 kts 268°
2026-04-22 08:45 -34.30897 143.34288 34308 ft 424 kts 268°
2026-04-22 08:46 -34.30969 143.27165 34307 ft 424 kts 268°
2026-04-22 08:46 -34.31041 143.20031 34305 ft 424 kts 268°
2026-04-22 08:47 -34.31095 143.14117 34308 ft 423 kts 268°
2026-04-22 08:47 -34.31157 143.06992 34306 ft 423 kts 268°
2026-04-22 08:48 -34.31232 142.98668 34304 ft 423 kts 268°
2026-04-22 08:48 -34.31274 142.92756 34306 ft 423 kts 268°
2026-04-22 08:49 -34.31321 142.85631 34301 ft 423 kts 268°
2026-04-22 08:49 -34.31370 142.78514 34304 ft 423 kts 268°
2026-04-22 08:50 -34.31418 142.71403 34306 ft 422 kts 268°
2026-04-22 08:50 -34.31458 142.64351 34308 ft 422 kts 268°
2026-04-22 08:51 -34.31489 142.57265 34303 ft 421 kts 268°
2026-04-22 08:51 -34.31511 142.50177 34303 ft 420 kts 268°
2026-04-22 08:52 -34.31538 142.43108 34305 ft 420 kts 268°
2026-04-22 08:52 -34.31563 142.36053 34303 ft 419 kts 268°
2026-04-22 08:53 -34.31582 142.29000 34302 ft 419 kts 268°
2026-04-22 08:53 -34.31595 142.21963 34302 ft 418 kts 268°
2026-04-22 08:54 -34.31608 142.14935 34300 ft 417 kts 268°
2026-04-22 08:54 -34.31609 142.07918 34297 ft 417 kts 268°
2026-04-22 08:55 -34.31609 142.00908 34295 ft 417 kts 268°
2026-04-22 08:55 -34.31611 141.93904 34289 ft 416 kts 268°
2026-04-22 08:56 -34.31605 141.86948 34291 ft 416 kts 268°
2026-04-22 08:56 -34.31592 141.79955 34299 ft 416 kts 268°
2026-04-22 08:57 -34.31576 141.72966 34297 ft 416 kts 268°
2026-04-22 08:57 -34.31559 141.65973 34281 ft 416 kts 268°
2026-04-22 08:58 -34.31535 141.58980 34286 ft 415 kts 268°
2026-04-22 08:58 -34.31516 141.51998 34280 ft 415 kts 268°
2026-04-22 08:59 -34.31487 141.45006 34279 ft 415 kts 268°
2026-04-22 08:59 -34.31452 141.38027 34273 ft 415 kts 268°
2026-04-22 09:00 -34.31417 141.31050 34271 ft 415 kts 268°
2026-04-22 09:00 -34.31377 141.24071 34275 ft 415 kts 268°
2026-04-22 09:01 -34.31326 141.17093 34275 ft 415 kts 268°
2026-04-22 09:01 -34.31272 141.10105 34273 ft 416 kts 268°
2026-04-22 09:02 -34.31221 141.03140 34266 ft 416 kts 268°
2026-04-22 09:02 -34.31164 140.96138 34269 ft 416 kts 268°
2026-04-22 09:03 -34.31098 140.89136 34270 ft 417 kts 268°
2026-04-22 09:03 -34.31030 140.82126 34270 ft 417 kts 268°
2026-04-22 09:04 -34.30961 140.75119 34262 ft 417 kts 268°
2026-04-22 09:04 -34.30886 140.68114 34264 ft 417 kts 268°
2026-04-22 09:05 -34.30803 140.61099 34262 ft 417 kts 268°
2026-04-22 09:05 -34.30719 140.54087 34264 ft 417 kts 268°
2026-04-22 09:06 -34.30644 140.47072 34260 ft 417 kts 268°
2026-04-22 09:06 -34.30562 140.40044 34257 ft 418 kts 268°
2026-04-22 09:07 -34.30472 140.33014 34259 ft 419 kts 268°
2026-04-22 09:07 -34.30370 140.26009 34263 ft 419 kts 268°
2026-04-22 09:08 -34.30268 140.18961 34258 ft 419 kts 268°
2026-04-22 09:08 -34.30160 140.11912 34252 ft 419 kts 268°
2026-04-22 09:09 -34.30049 140.04863 34253 ft 420 kts 268°
2026-04-22 09:09 -34.29933 139.97810 34250 ft 420 kts 268°
2026-04-22 09:10 -34.29818 139.90737 34247 ft 421 kts 268°
2026-04-22 09:10 -34.29689 139.83661 34245 ft 421 kts 268°
2026-04-22 09:11 -34.29556 139.76613 34253 ft 422 kts 268°
2026-04-22 09:11 -34.29420 139.69470 34252 ft 423 kts 268°
2026-04-22 09:12 -34.29289 139.62403 34252 ft 423 kts 268°
2026-04-22 09:12 -34.29152 139.55288 34249 ft 423 kts 268°
2026-04-22 09:13 -34.29005 139.48172 34255 ft 423 kts 268°
2026-04-22 09:13 -34.28854 139.41048 34261 ft 423 kts 268°
2026-04-22 09:14 -34.28701 139.33935 34261 ft 423 kts 268°
2026-04-22 09:14 -34.28546 139.26824 34265 ft 423 kts 268°
2026-04-22 09:15 -34.28384 139.19704 34262 ft 423 kts 268°
2026-04-22 09:15 -34.28216 139.12593 34266 ft 423 kts 268°
2026-04-22 09:16 -34.28047 139.05481 34266 ft 423 kts 268°
2026-04-22 09:16 -34.27875 138.98358 34271 ft 424 kts 268°
2026-04-22 09:17 -34.27702 138.91245 34275 ft 424 kts 268°
2026-04-22 09:17 -34.27525 138.84120 34277 ft 423 kts 268°
2026-04-22 09:18 -34.27339 138.77057 34272 ft 423 kts 268°
2026-04-22 09:18 -34.27143 138.69944 34273 ft 423 kts 268°
2026-04-22 09:19 -34.26950 138.62849 34275 ft 423 kts 268°
2026-04-22 09:19 -34.26752 138.55739 34273 ft 423 kts 268°
2026-04-22 09:20 -34.26546 138.48646 34272 ft 422 kts 268°
2026-04-22 09:20 -34.26342 138.41551 34269 ft 422 kts 268°
2026-04-22 09:21 -34.26136 138.34472 34272 ft 421 kts 268°
2026-04-22 09:21 -34.25925 138.27392 34272 ft 421 kts 268°
2026-04-22 09:22 -34.25702 138.20373 34275 ft 421 kts 268°
2026-04-22 09:22 -34.25476 138.13309 34269 ft 420 kts 268°
2026-04-22 09:23 -34.25256 138.06261 34272 ft 419 kts 268°
2026-04-22 09:23 -34.25034 137.99218 34268 ft 419 kts 268°
2026-04-22 09:24 -34.24801 137.92187 34259 ft 419 kts 268°
2026-04-22 09:24 -34.24562 137.85156 34263 ft 418 kts 268°
2026-04-22 09:25 -34.24319 137.78123 34260 ft 418 kts 268°
2026-04-22 09:25 -34.24078 137.71094 34257 ft 419 kts 268°
2026-04-22 09:26 -34.23826 137.64067 34261 ft 419 kts 268°
2026-04-22 09:26 -34.23574 137.57034 34262 ft 418 kts 268°
2026-04-22 09:27 -34.23321 137.50016 34259 ft 418 kts 268°
2026-04-22 09:27 -34.23068 137.42997 34256 ft 418 kts 268°
2026-04-22 09:28 -34.22804 137.35983 34254 ft 417 kts 268°
2026-04-22 09:28 -34.22539 137.29026 34256 ft 417 kts 268°
2026-04-22 09:29 -34.22260 137.21978 34266 ft 417 kts 268°
2026-04-22 09:29 -34.21985 137.15032 34257 ft 417 kts 268°
2026-04-22 09:30 -34.21717 137.08138 34261 ft 417 kts 268°
2026-04-22 09:30 -34.21436 137.01143 34263 ft 416 kts 268°
2026-04-22 09:31 -34.21149 136.94155 34262 ft 416 kts 268°
2026-04-22 09:31 -34.20858 136.87167 34264 ft 416 kts 268°
2026-04-22 09:32 -34.20564 136.80190 34261 ft 417 kts 268°
2026-04-22 09:32 -34.20267 136.73075 34266 ft 431 kts 268°
2026-04-22 09:33 -34.19960 136.65834 34259 ft 436 kts 268°
2026-04-22 09:33 -34.19634 136.58513 34523 ft 436 kts 268°
2026-04-22 09:33 -34.19469 136.54859 34761 ft 435 kts 268°
2026-04-22 09:34 -34.19304 136.51216 34996 ft 434 kts 268°
2026-04-22 09:34 -34.19138 136.47582 35233 ft 433 kts 268°
2026-04-22 09:34 -34.18973 136.43954 35475 ft 432 kts 268°
2026-04-22 09:35 -34.18645 136.36740 35927 ft 429 kts 268°
2026-04-22 09:35 -34.18481 136.33145 36151 ft 428 kts 268°
2026-04-22 09:35 -34.18311 136.29551 36252 ft 428 kts 268°
2026-04-22 09:35 -34.18138 136.25964 36260 ft 427 kts 268°
2026-04-22 09:36 -34.17800 136.18808 36264 ft 427 kts 268°
2026-04-22 09:36 -34.17463 136.11652 36264 ft 427 kts 268°
2026-04-22 09:37 -34.17131 136.04543 36262 ft 426 kts 268°
2026-04-22 09:37 -34.16786 135.97396 36262 ft 426 kts 268°
2026-04-22 09:38 -34.16423 135.90246 36267 ft 427 kts 268°
2026-04-22 09:38 -34.16058 135.83092 36263 ft 427 kts 268°
2026-04-22 09:39 -34.15757 135.77101 36268 ft 427 kts 268°
2026-04-22 09:39 -34.15399 135.69993 36267 ft 427 kts 268°
2026-04-22 09:40 -34.15026 135.62844 36267 ft 427 kts 269°
2026-04-22 09:40 -34.14651 135.55699 36270 ft 426 kts 268°
2026-04-22 09:41 -34.14281 135.48557 36266 ft 426 kts 268°
2026-04-22 09:41 -34.13900 135.41420 36267 ft 426 kts 269°
2026-04-22 09:42 -34.13515 135.34286 36269 ft 426 kts 269°
2026-04-22 09:42 -34.13139 135.27157 36274 ft 425 kts 268°
2026-04-22 09:43 -34.12787 135.20039 36272 ft 424 kts 268°
2026-04-22 09:43 -34.12438 135.12927 36274 ft 424 kts 268°
2026-04-22 09:44 -34.12073 135.05820 36275 ft 424 kts 269°
2026-04-22 09:44 -34.11697 134.98715 36275 ft 424 kts 269°
2026-04-22 09:45 -34.11334 134.91672 36274 ft 423 kts 269°
2026-04-22 09:45 -34.10965 134.84592 36274 ft 422 kts 269°
2026-04-22 09:46 -34.10582 134.77522 36271 ft 422 kts 269°
2026-04-22 09:46 -34.10193 134.70467 36271 ft 421 kts 269°
2026-04-22 09:47 -34.09802 134.63416 36278 ft 422 kts 269°
2026-04-22 09:47 -34.09414 134.56355 36273 ft 421 kts 269°
2026-04-22 09:48 -34.09025 134.49312 36276 ft 421 kts 269°
2026-04-22 09:48 -34.08626 134.42273 36278 ft 421 kts 270°
2026-04-22 09:49 -34.08220 134.35234 36276 ft 420 kts 270°
2026-04-22 09:49 -34.07816 134.28247 36271 ft 420 kts 270°
2026-04-22 09:50 -34.07403 134.21212 36275 ft 420 kts 270°
2026-04-22 09:50 -34.06987 134.14184 36277 ft 420 kts 270°
2026-04-22 09:51 -34.06573 134.07156 36274 ft 420 kts 270°
2026-04-22 09:51 -34.06153 134.00138 36279 ft 419 kts 270°
2026-04-22 09:52 -34.05726 133.93127 36276 ft 419 kts 270°
2026-04-22 09:52 -34.05297 133.86111 36273 ft 419 kts 271°
2026-04-22 09:53 -34.04868 133.79101 36279 ft 419 kts 271°
2026-04-22 09:53 -34.04439 133.72138 36283 ft 419 kts 271°
2026-04-22 09:54 -34.03995 133.65141 36287 ft 419 kts 271°
2026-04-22 09:54 -34.03551 133.58147 36289 ft 418 kts 271°
2026-04-22 09:55 -34.03106 133.51156 36288 ft 418 kts 271°
2026-04-22 09:55 -34.02650 133.44167 36291 ft 418 kts 271°
2026-04-22 09:56 -34.02197 133.37188 36286 ft 418 kts 271°
2026-04-22 09:56 -34.01743 133.30212 36288 ft 417 kts 272°
2026-04-22 09:57 -34.01276 133.23242 36287 ft 417 kts 272°
2026-04-22 09:57 -34.00809 133.16268 36288 ft 417 kts 272°
2026-04-22 09:58 -34.00329 133.09299 36287 ft 417 kts 272°
2026-04-22 09:58 -33.99851 133.02335 36286 ft 417 kts 272°
2026-04-22 09:59 -33.99377 132.95378 36288 ft 417 kts 272°
2026-04-22 09:59 -33.98906 132.88415 36285 ft 416 kts 272°
2026-04-22 10:00 -33.98430 132.81467 36285 ft 416 kts 272°
2026-04-22 10:00 -33.97938 132.74560 36283 ft 416 kts 272°
2026-04-22 10:01 -33.97429 132.67624 36282 ft 416 kts 273°
2026-04-22 10:01 -33.96939 132.60686 36283 ft 415 kts 273°
2026-04-22 10:02 -33.96441 132.53752 36281 ft 415 kts 272°
2026-04-22 10:02 -33.95948 132.46816 36284 ft 415 kts 273°
2026-04-22 10:03 -33.95440 132.39896 36285 ft 415 kts 273°
2026-04-22 10:03 -33.94928 132.32972 36284 ft 415 kts 273°
2026-04-22 10:04 -33.94394 132.26068 36265 ft 413 kts 273°
2026-04-22 10:04 -33.93881 132.19188 36268 ft 413 kts 273°
2026-04-22 10:05 -33.93372 132.12304 36266 ft 412 kts 273°
2026-04-22 10:05 -33.92857 132.05471 36273 ft 412 kts 273°
2026-04-22 10:06 -33.92345 131.98599 36276 ft 412 kts 273°
2026-04-22 10:06 -33.91817 131.91734 36278 ft 412 kts 274°
2026-04-22 10:07 -33.91271 131.84865 36288 ft 412 kts 274°
2026-04-22 10:07 -33.90730 131.78011 36288 ft 411 kts 274°
2026-04-22 10:08 -33.90177 131.71161 36294 ft 411 kts 274°
2026-04-22 10:08 -33.89645 131.64315 36289 ft 411 kts 274°
2026-04-22 10:09 -33.89105 131.57478 36293 ft 410 kts 274°
2026-04-22 10:09 -33.88561 131.50643 36292 ft 410 kts 274°
2026-04-22 10:10 -33.87994 131.43826 36289 ft 409 kts 274°
2026-04-22 10:10 -33.87437 131.37077 36270 ft 403 kts 274°
2026-04-22 10:11 -33.87162 131.33773 36261 ft 392 kts 274°
2026-04-22 10:11 -33.86892 131.30527 36262 ft 388 kts 274°
2026-04-22 10:11 -33.86359 131.24081 36265 ft 386 kts 274°
2026-04-22 10:12 -33.85822 131.17660 36261 ft 385 kts 275°
2026-04-22 10:12 -33.85281 131.11256 36261 ft 385 kts 275°
2026-04-22 10:13 -33.84734 131.04847 36272 ft 385 kts 275°
2026-04-22 10:13 -33.84183 130.98440 36275 ft 385 kts 275°
2026-04-22 10:14 -33.83631 130.92024 36276 ft 385 kts 275°
2026-04-22 10:14 -33.83068 130.85615 36271 ft 385 kts 275°
2026-04-22 10:15 -33.82509 130.79214 36284 ft 384 kts 275°
2026-04-22 10:15 -33.81947 130.72821 36284 ft 384 kts 275°
2026-04-22 10:16 -33.81385 130.66477 36283 ft 383 kts 275°
2026-04-22 10:16 -33.80823 130.60107 36284 ft 383 kts 275°
2026-04-22 10:17 -33.80254 130.53740 36285 ft 383 kts 275°
2026-04-22 10:17 -33.79681 130.47382 36280 ft 382 kts 275°
2026-04-22 10:18 -33.79110 130.41039 36286 ft 381 kts 275°
2026-04-22 10:18 -33.78539 130.34707 36276 ft 381 kts 276°
2026-04-22 10:19 -33.77959 130.28372 36279 ft 381 kts 276°
2026-04-22 10:19 -33.77374 130.22049 36274 ft 381 kts 276°
2026-04-22 10:20 -33.76790 130.15770 36274 ft 380 kts 276°
2026-04-22 10:20 -33.76198 130.09454 36271 ft 380 kts 276°
2026-04-22 10:21 -33.75604 130.03138 36275 ft 380 kts 276°
2026-04-22 10:21 -33.75014 129.96825 36272 ft 380 kts 276°
2026-04-22 10:22 -33.74427 129.90517 36272 ft 380 kts 276°
2026-04-22 10:22 -33.73828 129.84211 36270 ft 380 kts 276°
2026-04-22 10:23 -33.73215 129.77913 36275 ft 380 kts 276°
2026-04-22 10:23 -33.72608 129.71616 36272 ft 379 kts 276°
2026-04-22 10:24 -33.72001 129.65321 36275 ft 379 kts 276°
2026-04-22 10:24 -33.71388 129.59026 36271 ft 379 kts 276°
2026-04-22 10:25 -33.70779 129.52745 36275 ft 379 kts 276°
2026-04-22 10:25 -33.70168 129.46503 36270 ft 379 kts 276°
2026-04-22 10:26 -33.69545 129.40220 36272 ft 378 kts 277°
2026-04-22 10:26 -33.68920 129.33950 36267 ft 378 kts 277°
2026-04-22 10:27 -33.68293 129.27683 36270 ft 378 kts 277°
2026-04-22 10:27 -33.67666 129.21420 36265 ft 378 kts 277°
2026-04-22 10:28 -33.67031 129.15154 36268 ft 377 kts 277°
2026-04-22 10:28 -33.66399 129.08899 36262 ft 377 kts 277°
2026-04-22 10:29 -33.65869 129.03705 36265 ft 377 kts 277°
2026-04-22 10:29 -33.65231 128.97457 36265 ft 377 kts 277°
2026-04-22 10:30 -33.64482 128.90199 36267 ft 377 kts 277°
2026-04-22 10:30 -33.63945 128.84968 36257 ft 377 kts 277°
2026-04-22 10:31 -33.63295 128.78733 36261 ft 377 kts 277°
2026-04-22 10:31 -33.62537 128.71486 36254 ft 376 kts 277°
2026-04-22 10:32 -33.61997 128.66309 36253 ft 376 kts 277°
2026-04-22 10:32 -33.61342 128.60084 36244 ft 376 kts 277°
2026-04-22 10:33 -33.60680 128.53854 36254 ft 376 kts 277°
2026-04-22 10:33 -33.60011 128.47634 36251 ft 376 kts 277°
2026-04-22 10:34 -33.59351 128.41408 36252 ft 376 kts 277°
2026-04-22 10:34 -33.58690 128.35184 36249 ft 376 kts 277°
2026-04-22 10:35 -33.58013 128.28961 36247 ft 377 kts 277°
2026-04-22 10:35 -33.57331 128.22735 36245 ft 377 kts 277°
2026-04-22 10:36 -33.56651 128.16509 36249 ft 376 kts 277°
2026-04-22 10:36 -33.55966 128.10285 36246 ft 376 kts 277°
2026-04-22 10:37 -33.54945 128.00971 36244 ft 376 kts 277°
2026-04-22 10:38 -33.54263 127.94759 36246 ft 376 kts 277°
2026-04-22 10:38 -33.53579 127.88545 36243 ft 376 kts 277°
2026-04-22 10:39 -33.52889 127.82328 36244 ft 376 kts 277°
2026-04-22 10:39 -33.52194 127.76109 36238 ft 377 kts 278°
2026-04-22 10:40 -33.51495 127.69888 36240 ft 377 kts 278°
2026-04-22 10:40 -33.50808 127.63700 36235 ft 377 kts 278°
2026-04-22 10:41 -33.50101 127.57471 36240 ft 377 kts 278°
2026-04-22 10:41 -33.49394 127.51241 36232 ft 377 kts 278°
2026-04-22 10:42 -33.48687 127.45015 36234 ft 377 kts 278°
2026-04-22 10:42 -33.47975 127.38791 36227 ft 377 kts 278°
2026-04-22 10:43 -33.47256 127.32569 36230 ft 377 kts 278°
2026-04-22 10:43 -33.46534 127.26342 36224 ft 377 kts 278°
2026-04-22 10:44 -33.45810 127.20125 36227 ft 377 kts 278°
2026-04-22 10:44 -33.45088 127.13898 36232 ft 377 kts 278°
2026-04-22 10:45 -33.44356 127.07673 36227 ft 377 kts 278°
2026-04-22 10:45 -33.43626 127.01491 36219 ft 377 kts 278°
2026-04-22 10:46 -33.42892 126.95267 36219 ft 378 kts 278°
2026-04-22 10:46 -33.42151 126.89041 36226 ft 378 kts 278°
2026-04-22 10:47 -33.41406 126.82814 36218 ft 378 kts 278°
2026-04-22 10:47 -33.40660 126.76587 36210 ft 378 kts 278°
2026-04-22 10:48 -33.39911 126.70363 36213 ft 378 kts 278°
2026-04-22 10:48 -33.39157 126.64138 36206 ft 378 kts 278°
2026-04-22 10:49 -33.38409 126.57917 36209 ft 378 kts 278°
2026-04-22 10:49 -33.37648 126.51698 36204 ft 378 kts 278°
2026-04-22 10:50 -33.36881 126.45474 36210 ft 378 kts 278°
2026-04-22 10:50 -33.36120 126.39252 36204 ft 378 kts 278°
2026-04-22 10:51 -33.35352 126.33022 36208 ft 378 kts 278°
2026-04-22 10:51 -33.34580 126.26801 36201 ft 378 kts 278°
2026-04-22 10:51 -33.34196 126.23689 35898 ft 379 kts 278°
2026-04-22 10:52 -33.33810 126.20558 36062 ft 382 kts 278°
2026-04-22 10:52 -33.33418 126.17399 36165 ft 386 kts 278°
2026-04-22 10:52 -33.33021 126.14217 36172 ft 387 kts 278°
2026-04-22 10:53 -33.32226 126.07887 36179 ft 388 kts 278°
2026-04-22 10:53 -33.31420 126.01518 36179 ft 388 kts 278°
2026-04-22 10:54 -33.30615 125.95144 36176 ft 388 kts 278°
2026-04-22 10:54 -33.29808 125.88764 36176 ft 388 kts 278°
2026-04-22 10:55 -33.28994 125.82389 36172 ft 388 kts 278°
2026-04-22 10:55 -33.28184 125.76011 36170 ft 388 kts 278°
2026-04-22 10:56 -33.27365 125.69630 36169 ft 388 kts 278°
2026-04-22 10:56 -33.26535 125.63256 36171 ft 388 kts 279°
2026-04-22 10:57 -33.25699 125.56877 36171 ft 389 kts 279°
2026-04-22 10:57 -33.24867 125.50499 36172 ft 389 kts 279°
2026-04-22 10:58 -33.24035 125.44113 36172 ft 389 kts 279°
2026-04-22 10:58 -33.23199 125.37729 36169 ft 389 kts 279°
2026-04-22 10:59 -33.22362 125.31389 36167 ft 389 kts 279°
2026-04-22 10:59 -33.21516 125.25021 36166 ft 388 kts 279°
2026-04-22 11:00 -33.20674 125.18649 36166 ft 388 kts 279°
2026-04-22 11:00 -33.19826 125.12282 36167 ft 388 kts 279°
2026-04-22 11:01 -33.18966 125.05915 36163 ft 388 kts 279°
2026-04-22 11:01 -33.18105 124.99549 36161 ft 388 kts 279°
2026-04-22 11:02 -33.17244 124.93195 36158 ft 388 kts 279°
2026-04-22 11:02 -33.16383 124.86888 36159 ft 387 kts 279°
2026-04-22 11:03 -33.15518 124.80545 36156 ft 387 kts 279°
2026-04-22 11:03 -33.14642 124.74205 36153 ft 387 kts 279°
2026-04-22 11:04 -33.13765 124.67877 36143 ft 386 kts 279°
2026-04-22 11:04 -33.12888 124.61553 36143 ft 386 kts 279°
2026-04-22 11:05 -33.12008 124.55240 36146 ft 386 kts 280°
2026-04-22 11:05 -33.11128 124.48928 36140 ft 386 kts 280°
2026-04-22 11:06 -33.10249 124.42615 36135 ft 386 kts 280°
2026-04-22 11:06 -33.09360 124.36295 36136 ft 386 kts 280°
2026-04-22 11:07 -33.08468 124.29981 36127 ft 387 kts 280°
2026-04-22 11:07 -33.07573 124.23657 36125 ft 387 kts 280°
2026-04-22 11:08 -33.06669 124.17336 36123 ft 387 kts 280°
2026-04-22 11:08 -33.05770 124.11053 36119 ft 387 kts 280°
2026-04-22 11:09 -33.04859 124.04728 36112 ft 387 kts 280°
2026-04-22 11:09 -33.03950 123.98402 36111 ft 388 kts 280°
2026-04-22 11:10 -33.03029 123.92065 36111 ft 388 kts 280°
2026-04-22 11:10 -33.02110 123.85713 36117 ft 389 kts 280°
2026-04-22 11:11 -33.01198 123.79398 36111 ft 389 kts 280°
2026-04-22 11:11 -33.00262 123.73049 36112 ft 389 kts 280°
2026-04-22 11:12 -32.99322 123.66700 36109 ft 389 kts 280°
2026-04-22 11:12 -32.98392 123.60346 36110 ft 389 kts 280°
2026-04-22 11:13 -32.97463 123.53993 36106 ft 389 kts 280°
2026-04-22 11:13 -32.96523 123.47646 36102 ft 389 kts 281°
2026-04-22 11:14 -32.95573 123.41300 36102 ft 389 kts 281°
2026-04-22 11:14 -32.94624 123.34954 36109 ft 389 kts 281°
2026-04-22 11:15 -32.93673 123.28616 36097 ft 389 kts 281°
2026-04-22 11:15 -32.92724 123.22272 36104 ft 389 kts 281°
2026-04-22 11:16 -32.91771 123.15942 36104 ft 389 kts 281°
2026-04-22 11:16 -32.90811 123.09613 36098 ft 388 kts 281°
2026-04-22 11:17 -32.89848 123.03335 36096 ft 388 kts 281°
2026-04-22 11:17 -32.88880 122.97027 36094 ft 388 kts 281°
2026-04-22 11:18 -32.87915 122.90718 36089 ft 387 kts 281°
2026-04-22 11:18 -32.86948 122.84416 36085 ft 387 kts 281°
2026-04-22 11:19 -32.85974 122.78120 36085 ft 387 kts 281°
2026-04-22 11:19 -32.85000 122.71823 36079 ft 387 kts 281°
2026-04-22 11:20 -32.84025 122.65528 36074 ft 387 kts 281°
2026-04-22 11:20 -32.83205 122.60256 36075 ft 387 kts 281°
2026-04-22 11:21 -32.82232 122.54004 36071 ft 387 kts 281°
2026-04-22 11:21 -32.81244 122.47714 36067 ft 387 kts 281°
2026-04-22 11:22 -32.80249 122.41430 36069 ft 387 kts 281°
2026-04-22 11:22 -32.79254 122.35138 36068 ft 387 kts 281°
2026-04-22 11:23 -32.78263 122.28855 36064 ft 387 kts 282°
2026-04-22 11:23 -32.77271 122.22572 36062 ft 387 kts 282°
2026-04-22 11:24 -32.76270 122.16282 36054 ft 387 kts 282°
2026-04-22 11:24 -32.75259 122.10008 36055 ft 387 kts 282°
2026-04-22 11:25 -32.74246 122.03727 36054 ft 387 kts 282°
2026-04-22 11:25 -32.73240 121.97495 36054 ft 387 kts 282°
2026-04-22 11:26 -32.72224 121.91228 36053 ft 387 kts 282°
2026-04-22 11:26 -32.71230 121.84955 36051 ft 387 kts 280°
2026-04-22 11:27 -32.70535 121.78620 36047 ft 387 kts 278°
2026-04-22 11:27 -32.69973 121.72262 36050 ft 387 kts 278°
2026-04-22 11:28 -32.69363 121.65915 36046 ft 387 kts 279°
2026-04-22 11:28 -32.68697 121.59583 36047 ft 386 kts 279°
2026-04-22 11:29 -32.68024 121.53264 36048 ft 386 kts 279°
2026-04-22 11:29 -32.67356 121.46939 36051 ft 386 kts 279°
2026-04-22 11:30 -32.66685 121.40667 36048 ft 386 kts 279°
2026-04-22 11:30 -32.66014 121.34351 36050 ft 386 kts 279°
2026-04-22 11:31 -32.65345 121.28039 36048 ft 385 kts 279°
2026-04-22 11:31 -32.64668 121.21732 36046 ft 385 kts 279°
2026-04-22 11:32 -32.63979 121.15427 36044 ft 385 kts 279°
2026-04-22 11:32 -32.63295 121.09131 36035 ft 385 kts 279°
2026-04-22 11:33 -32.62607 121.02828 36044 ft 385 kts 279°
2026-04-22 11:33 -32.61915 120.96534 36035 ft 385 kts 279°
2026-04-22 11:34 -32.61223 120.90240 36027 ft 385 kts 279°
2026-04-22 11:34 -32.60532 120.83991 36027 ft 385 kts 279°
2026-04-22 11:35 -32.59842 120.77686 36026 ft 385 kts 279°
2026-04-22 11:35 -32.59149 120.71388 36016 ft 385 kts 280°
2026-04-22 11:36 -32.58447 120.65089 36022 ft 386 kts 280°
2026-04-22 11:36 -32.57735 120.58783 36018 ft 386 kts 280°
2026-04-22 11:37 -32.57016 120.52477 36019 ft 386 kts 280°
2026-04-22 11:37 -32.56291 120.46171 36020 ft 386 kts 280°
2026-04-22 11:38 -32.55570 120.39861 36023 ft 386 kts 280°
2026-04-22 11:38 -32.54495 120.30444 36026 ft 386 kts 280°
2026-04-22 11:39 -32.53769 120.24141 36022 ft 386 kts 280°
2026-04-22 11:39 -32.53038 120.17844 36026 ft 386 kts 281°
2026-04-22 11:40 -32.52300 120.11547 36023 ft 386 kts 281°
2026-04-22 11:40 -32.51564 120.05258 36028 ft 385 kts 281°
2026-04-22 11:41 -32.50822 119.98970 36021 ft 385 kts 281°
2026-04-22 11:41 -32.50061 119.92690 36016 ft 385 kts 281°
2026-04-22 11:42 -32.49319 119.86412 36023 ft 385 kts 281°
2026-04-22 11:42 -32.48588 119.80127 36023 ft 385 kts 281°
2026-04-22 11:43 -32.47840 119.73859 36020 ft 384 kts 281°
2026-04-22 11:43 -32.47089 119.67598 36020 ft 384 kts 281°
2026-04-22 11:44 -32.46332 119.61355 36018 ft 383 kts 281°
2026-04-22 11:44 -32.45571 119.55112 36012 ft 383 kts 281°
2026-04-22 11:45 -32.44812 119.48882 36014 ft 382 kts 281°
2026-04-22 11:45 -32.44044 119.42657 36009 ft 382 kts 281°
2026-04-22 11:46 -32.43278 119.36439 36009 ft 382 kts 281°
2026-04-22 11:46 -32.42522 119.30226 36006 ft 382 kts 281°
2026-04-22 11:47 -32.41759 119.24053 36006 ft 382 kts 281°
2026-04-22 11:47 -32.40978 119.17844 36000 ft 381 kts 282°
2026-04-22 11:48 -32.40199 119.11636 36004 ft 381 kts 282°
2026-04-22 11:48 -32.39422 119.05438 36001 ft 381 kts 282°
2026-04-22 11:49 -32.38650 118.99241 35996 ft 381 kts 282°
2026-04-22 11:49 -32.37879 118.93041 35997 ft 381 kts 282°
2026-04-22 11:50 -32.37091 118.86844 35997 ft 381 kts 282°
2026-04-22 11:50 -32.36297 118.80649 35996 ft 381 kts 282°
2026-04-22 11:51 -32.35503 118.74455 35999 ft 381 kts 282°
2026-04-22 11:51 -32.34708 118.68301 35997 ft 381 kts 282°
2026-04-22 11:52 -32.33912 118.62108 35998 ft 381 kts 282°
2026-04-22 11:52 -32.33218 118.55901 35996 ft 382 kts 279°
2026-04-22 11:53 -32.32727 118.49652 36000 ft 382 kts 279°
2026-04-22 11:53 -32.32246 118.43398 36001 ft 381 kts 279°
2026-04-22 11:54 -32.31721 118.37159 36002 ft 381 kts 279°
2026-04-22 11:54 -32.31168 118.30940 36001 ft 380 kts 280°
2026-04-22 11:55 -32.30614 118.24721 35803 ft 380 kts 280°
2026-04-22 11:55 -32.30342 118.21612 35558 ft 380 kts 280°
2026-04-22 11:55 -32.30072 118.18501 35316 ft 381 kts 280°
2026-04-22 11:56 -32.29801 118.15383 35076 ft 382 kts 280°
2026-04-22 11:56 -32.29524 118.12253 34841 ft 383 kts 280°
2026-04-22 11:56 -32.29242 118.09127 34603 ft 384 kts 280°
2026-04-22 11:56 -32.28961 118.06022 34367 ft 385 kts 280°
2026-04-22 11:57 -32.28675 118.02877 34138 ft 386 kts 280°
2026-04-22 11:57 -32.28389 117.99716 33893 ft 386 kts 280°
2026-04-22 11:57 -32.28111 117.96592 33488 ft 380 kts 280°
2026-04-22 11:57 -32.27838 117.93494 33038 ft 376 kts 280°
2026-04-22 11:58 -32.27568 117.90440 32593 ft 372 kts 280°
2026-04-22 11:58 -32.27300 117.87419 32156 ft 367 kts 280°
2026-04-22 11:58 -32.27030 117.84435 31719 ft 364 kts 280°
2026-04-22 11:58 -32.26759 117.81478 31284 ft 361 kts 280°
2026-04-22 11:59 -32.26487 117.78542 30853 ft 358 kts 280°
2026-04-22 11:59 -32.26220 117.75628 30422 ft 355 kts 280°
2026-04-22 11:59 -32.25953 117.72738 29986 ft 353 kts 280°
2026-04-22 11:59 -32.25686 117.69863 29520 ft 350 kts 280°
2026-04-22 12:00 -32.25423 117.67022 29096 ft 347 kts 280°
2026-04-22 12:00 -32.25161 117.64197 28683 ft 344 kts 280°
2026-04-22 12:00 -32.24901 117.61399 28267 ft 342 kts 280°
2026-04-22 12:00 -32.24644 117.58618 27870 ft 339 kts 280°
2026-04-22 12:01 -32.24387 117.55858 27463 ft 338 kts 280°
2026-04-22 12:01 -32.24129 117.53106 27073 ft 336 kts 280°
2026-04-22 12:01 -32.23872 117.50367 26688 ft 335 kts 280°
2026-04-22 12:01 -32.23617 117.47645 26306 ft 333 kts 280°
2026-04-22 12:02 -32.23358 117.44938 25931 ft 330 kts 280°
2026-04-22 12:02 -32.23098 117.42250 25567 ft 328 kts 280°
2026-04-22 12:02 -32.22842 117.39583 25212 ft 326 kts 280°
2026-04-22 12:02 -32.22591 117.36934 24864 ft 323 kts 280°
2026-04-22 12:03 -32.22343 117.34309 24513 ft 320 kts 280°
2026-04-22 12:03 -32.22096 117.31709 24171 ft 317 kts 280°
2026-04-22 12:03 -32.21850 117.29132 23818 ft 315 kts 280°
2026-04-22 12:03 -32.21606 117.26579 23454 ft 312 kts 280°
2026-04-22 12:04 -32.21367 117.24079 23071 ft 309 kts 280°
2026-04-22 12:04 -32.21124 117.21564 22715 ft 307 kts 280°
2026-04-22 12:04 -32.20883 117.19067 22363 ft 305 kts 280°
2026-04-22 12:04 -32.20643 117.16590 21996 ft 303 kts 280°
2026-04-22 12:05 -32.20403 117.14119 21641 ft 302 kts 280°
2026-04-22 12:05 -32.20163 117.11661 21263 ft 300 kts 280°
2026-04-22 12:05 -32.19924 117.09218 20895 ft 299 kts 280°
2026-04-22 12:05 -32.19686 117.06786 20516 ft 298 kts 280°
2026-04-22 12:06 -32.19451 117.04364 20140 ft 296 kts 280°
2026-04-22 12:06 -32.19219 117.01955 19768 ft 295 kts 280°
2026-04-22 12:06 -32.18987 116.99550 19391 ft 294 kts 281°
2026-04-22 12:06 -32.18745 116.97119 19018 ft 306 kts 281°
2026-04-22 12:07 -32.18494 116.94613 18636 ft 307 kts 281°
2026-04-22 12:07 -32.18219 116.92119 18230 ft 304 kts 285°
2026-04-22 12:07 -32.17580 116.89770 17737 ft 300 kts 297°
2026-04-22 12:07 -32.16507 116.87681 17282 ft 297 kts 308°
2026-04-22 12:08 -32.15248 116.85796 16854 ft 296 kts 308°
2026-04-22 12:08 -32.13982 116.83889 16418 ft 294 kts 308°
2026-04-22 12:08 -32.12728 116.81987 15980 ft 293 kts 308°
2026-04-22 12:08 -32.11478 116.80091 15547 ft 292 kts 308°
2026-04-22 12:09 -32.10226 116.78201 15111 ft 292 kts 308°
2026-04-22 12:09 -32.08976 116.76320 14677 ft 291 kts 308°
2026-04-22 12:09 -32.07726 116.74440 14242 ft 291 kts 308°
2026-04-22 12:09 -32.06900 116.73197 13947 ft 291 kts 308°
2026-04-22 12:10 -32.05235 116.70690 13336 ft 290 kts 309°
2026-04-22 12:10 -32.03996 116.68823 12899 ft 288 kts 309°
2026-04-22 12:10 -32.02777 116.66987 12485 ft 287 kts 309°
2026-04-22 12:10 -32.01534 116.65116 12043 ft 285 kts 309°
2026-04-22 12:11 -32.00310 116.63276 11605 ft 285 kts 309°
2026-04-22 12:11 -31.99106 116.61470 11186 ft 284 kts 309°
2026-04-22 12:11 -31.97888 116.59638 10743 ft 284 kts 309°
2026-04-22 12:11 -31.96672 116.57811 10326 ft 283 kts 309°
2026-04-22 12:12 -31.95485 116.56029 10118 ft 267 kts 309°
2026-04-22 12:12 -31.94399 116.54312 9695 ft 258 kts 303°
2026-04-22 12:12 -31.93499 116.52522 9558 ft 255 kts 303°
2026-04-22 12:12 -31.92583 116.50733 9426 ft 256 kts 304°
2026-04-22 12:13 -31.91959 116.49519 9300 ft 258 kts 304°
2026-04-22 12:13 -31.91032 116.47716 8973 ft 256 kts 304°
2026-04-22 12:13 -31.89813 116.45341 8498 ft 256 kts 304°
2026-04-22 12:13 -31.89190 116.44128 8252 ft 256 kts 304°
2026-04-22 12:14 -31.87976 116.41756 7830 ft 255 kts 304°
2026-04-22 12:14 -31.87369 116.40572 7572 ft 253 kts 304°
2026-04-22 12:14 -31.86477 116.38830 7239 ft 243 kts 304°
2026-04-22 12:14 -31.85626 116.37169 6843 ft 236 kts 304°
2026-04-22 12:15 -31.84780 116.35522 6395 ft 232 kts 304°
2026-04-22 12:15 -31.83962 116.33930 6200 ft 225 kts 304°
2026-04-22 12:15 -31.83171 116.32386 6075 ft 216 kts 305°
2026-04-22 12:16 -31.82715 116.31496 5575 ft 224 kts 304°
2026-04-22 12:16 -31.81875 116.29874 5110 ft 229 kts 304°
2026-04-22 12:16 -31.81073 116.28317 4965 ft 219 kts 304°
2026-04-22 12:16 -31.80315 116.26774 4647 ft 219 kts 296°
2026-04-22 12:17 -31.79962 116.25010 4286 ft 227 kts 275°
2026-04-22 12:17 -31.80222 116.23148 3899 ft 236 kts 252°
2026-04-22 12:17 -31.80997 116.21492 3501 ft 232 kts 242°
2026-04-22 12:17 -31.81837 116.19872 3100 ft 226 kts 241°
2026-04-22 12:18 -31.82616 116.18361 3027 ft 212 kts 242°
2026-04-22 12:18 -31.83350 116.16916 2943 ft 199 kts 242°
2026-04-22 12:18 -31.84034 116.15558 2865 ft 187 kts 242°
2026-04-22 12:18 -31.84685 116.14266 2803 ft 182 kts 242°
2026-04-22 12:19 -31.85323 116.12996 2701 ft 179 kts 242°
2026-04-22 12:19 -31.85953 116.11738 2623 ft 178 kts 242°
2026-04-22 12:19 -31.86586 116.10491 2425 ft 173 kts 241°
2026-04-22 12:19 -31.87186 116.09328 2215 ft 162 kts 240°
2026-04-22 12:20 -31.87763 116.08210 2021 ft 158 kts 240°
2026-04-22 12:20 -31.88332 116.07109 1851 ft 157 kts 240°
2026-04-22 12:20 -31.88877 116.06054 1671 ft 145 kts 240°
2026-04-22 12:20 -31.89388 116.05065 1484 ft 137 kts 240°
2026-04-22 12:21 -31.89882 116.04107 1295 ft 137 kts 240°
2026-04-22 12:21 -31.90376 116.03147 1104 ft 137 kts 239°
2026-04-22 12:21 -31.90871 116.02187 927 ft 137 kts 239°
2026-04-22 12:21 -31.91365 116.01227 736 ft 137 kts 239°
2026-04-22 12:22 -31.91859 116.00270 554 ft 136 kts 239°
2026-04-22 12:22 -31.92349 115.99322 375 ft 136 kts 239°
2026-04-22 12:22 -31.92829 115.98388 200 ft 135 kts 240°
2026-04-22 12:22 -31.93312 115.97442 67 ft 125 kts 239°
2026-04-22 12:23 -31.93643 115.96805 60 ft 49 kts 238°
2026-04-22 12:23 -31.93747 115.96604 62 ft 26 kts 239°
2026-04-22 12:23 -31.93847 115.96410 62 ft 29 kts 238°
2026-04-22 12:23 -31.93938 115.96296 65 ft 16 kts 193°
2026-04-22 12:24 -31.94051 115.96261 64 ft 18 kts 193°
2026-04-22 12:24 -31.94182 115.96223 63 ft 19 kts 194°
2026-04-22 12:24 -31.94307 115.96187 64 ft 17 kts 193°
2026-04-22 12:24 -31.94404 115.96198 64 ft 15 kts 129°
2026-04-22 12:25 -31.94435 115.96321 62 ft 16 kts 104°
2026-04-22 12:25 -31.94465 115.96463 60 ft 20 kts 103°
2026-04-22 12:25 -31.94495 115.96609 59 ft 13 kts 104°
2026-04-22 12:25 -31.94500 115.96698 62 ft 11 kts 68°
2026-04-22 12:26 -31.94431 115.96741 65 ft 12 kts 14°
2026-04-22 12:26 -31.94357 115.96762 61 ft 8 kts 13°
2026-04-22 12:26 -31.94296 115.96779 63 ft 10 kts 13°
2026-04-22 12:26 -31.94217 115.96802 61 ft 13 kts 16°
2026-04-22 12:27 -31.94194 115.96891 61 ft 12 kts 103°
2026-04-22 12:27 -31.94210 115.96965 61 ft 4 kts 104°
2026-04-22 12:27 -31.94206 115.96994 64 ft 3 kts 46°
2026-04-22 12:27 -31.94176 115.97003 58 ft 6 kts 14°
2026-04-22 12:28 -31.94156 115.97009 60 ft 1 kts 13°
2026-04-22 12:28 -31.94149 115.97011 57 ft 1 kts 13°
2026-04-22 12:28 -31.94146 115.97011 58 ft 0 kts 13°